Wind_Speed
16 15 15 14 11 9 3 2 2 3 3 2 3 5 7 9 9 8 10 9 8 9 8 9 9 8 9 11 12 12 7 6 6 3 5 8 13 15 14 17 22 24 22 19 20 21 19 18 17 17 17 17 17 18 19 18 18 18 17 17 18 18 17 16 16 15 14 14 14 14 14 14 14 14 14 14 14 14 13 13 13 13 13 13 13 13 13 13 12 12 11 11 12 12 11 11 11
15 14 13 11 9 7 2 3 3 3 2 3 4 6 8 8 8 10 11 9 8 10 10 9 10 11 13 13 10 12 12 12 12 10 10 15 16 15 17 18 22 23 21 20 21 21 19 20 19 17 16 17 17 17 18 17 17 17 16 16 16 17 16 16 15 15 14 14 14 14 14 14 14 13 13 13 13 13 12 12 12 12 12 12 12 12 12 12 11 11 10 11 11 11 11 11 11
14 12 11 9 7 6 3 3 4 1 3 4 5 6 7 7 10 12 12 12 12 11 9 9 9 8 10 12 11 11 12 12 15 13 11 17 15 14 18 18 22 22 20 20 20 20 18 19 19 17 16 16 17 17 17 16 16 16 16 15 15 16 15 15 15 15 14 14 13 13 13 13 13 12 12 12 12 12 11 11 11 12 11 11 11 12 12 11 10 10 10 10 10 11 11 11 11
13 11 10 7 4 5 3 4 4 2 5 3 4 8 8 9 12 12 12 13 11 9 9 9 8 8 9 12 11 11 12 12 15 13 10 16 15 16 19 19 21 20 19 18 18 19 18 19 18 17 16 16 17 17 16 16 15 15 15 15 15 15 15 15 14 14 14 13 13 12 12 12 12 11 11 11 11 10 10 10 11 11 10 11 11 11 11 11 10 10 10 10 10 11 11 10 11
12 11 11 8 3 2 4 4 1 4 5 2 4 8 10 10 12 12 12 11 9 9 8 8 8 11 12 11 8 8 10 11 15 14 14 19 19 19 21 20 21 20 19 18 18 19 20 21 18 16 17 17 17 17 16 15 15 14 15 15 16 15 15 14 13 14 13 12 12 12 11 11 11 10 10 10 10 9 9 10 10 10 10 10 10 10 11 10 10 10 10 10 9 10 10 10 11
12 11 10 9 5 3 6 3 4 5 6 5 5 7 10 10 12 12 11 10 8 8 7 7 10 12 12 10 9 8 8 10 12 14 17 21 22 20 21 21 21 21 20 19 19 19 21 21 18 17 17 17 17 17 15 15 14 14 15 15 16 15 14 13 12 12 12 11 11 11 11 10 9 9 10 9 9 8 8 9 9 9 9 9 9 10 10 10 9 9 9 9 10 10 10 11 11
11 8 6 6 5 6 6 2 6 5 6 7 7 8 10 10 10 11 10 9 8 7 6 7 11 11 10 8 9 10 9 10 12 15 19 22 22 20 20 20 21 22 21 20 21 22 23 21 19 17 17 17 16 16 16 15 14 13 14 15 15 15 14 13 12 11 11 10 10 10 10 9 9 9 9 8 8 7 8 8 8 8 8 8 9 9 9 9 9 9 9 9 10 10 10 10 11
10 5 2 4 6 6 2 5 7 6 7 7 8 9 9 10 8 9 8 7 7 7 7 9 10 10 11 10 9 11 11 13 15 19 21 22 21 19 19 19 20 21 21 20 21 23 24 21 19 17 16 17 15 15 16 15 14 13 13 14 14 15 14 12 11 11 10 10 9 9 8 8 8 8 8 7 7 6 7 7 7 7 7 7 8 9 9 9 9 8 8 9 9 10 9 9 10
7 4 2 5 8 3 5 6 7 7 8 8 8 8 7 8 7 8 7 7 7 8 9 9 8 10 13 13 11 10 12 16 19 21 21 21 20 19 19 19 19 19 19 18 19 22 22 20 19 17 16 16 14 14 15 16 14 13 12 12 13 14 14 12 11 10 9 9 9 8 7 7 7 7 7 6 6 6 6 6 5 5 6 7 8 9 9 8 8 8 8 8 9 9 9 9 10
3 4 4 6 6 2 6 5 7 8 9 9 9 8 6 5 5 6 7 9 8 8 10 7 9 13 14 13 10 9 13 17 19 20 19 19 19 18 18 18 19 19 19 19 19 20 20 20 19 17 17 16 14 14 16 16 15 13 12 12 13 14 12 11 10 10 9 9 8 7 6 5 6 6 6 5 5 5 5 5 4 5 6 7 8 8 8 8 7 7 8 9 9 9 9 9 8
1 4 6 6 2 3 5 6 7 8 9 9 9 8 6 5 5 6 7 9 8 9 10 7 11 16 15 12 8 11 16 18 18 19 19 18 18 19 19 18 18 18 19 20 20 20 20 20 18 16 16 16 14 16 17 16 15 13 13 13 13 13 11 10 10 9 9 8 7 6 6 5 5 5 5 5 4 5 4 4 3 4 6 7 8 8 8 8 8 7 8 8 9 8 8 8 8
3 4 6 5 2 4 4 7 8 8 9 9 9 7 6 6 5 7 8 9 9 9 9 7 12 15 13 11 8 13 18 17 18 19 19 18 18 18 18 18 18 17 20 21 20 19 19 18 18 16 15 15 16 17 17 16 15 14 14 14 13 12 11 10 9 8 8 8 7 7 6 6 5 5 5 4 4 4 4 4 3 4 6 7 8 8 7 8 7 7 7 7 8 7 7 7 8
4 4 7 3 2 2 3 6 7 7 8 8 8 7 6 5 6 8 7 9 9 9 10 9 13 13 11 11 9 13 16 17 19 19 19 18 18 17 17 17 18 18 18 20 20 19 19 18 17 17 16 16 16 17 17 16 15 14 14 13 12 11 10 10 9 9 9 8 8 7 6 6 5 5 4 4 3 3 3 3 3 5 7 8 8 7 7 7 7 7 7 7 8 8 7 8 9
5 6 6 1 1 1 3 3 5 6 7 8 8 7 6 5 6 8 8 9 8 8 10 11 12 11 11 11 10 11 14 19 20 20 19 18 17 17 17 17 18 17 17 17 18 19 18 17 17 17 18 17 17 17 16 15 14 14 13 13 12 10 10 10 9 9 9 8 8 7 7 6 5 4 4 3 3 2 2 2 3 6 8 9 8 7 7 6 7 7 8 9 9 8 8 9 9
6 6 6 2 1 1 2 1 3 5 8 9 8 7 6 6 6 8 9 9 8 10 10 10 9 8 11 12 10 12 17 21 21 20 20 18 17 17 17 17 17 17 17 17 17 18 17 17 18 18 19 18 17 16 15 15 15 14 13 12 11 10 10 10 9 9 9 8 8 7 6 5 5 4 3 3 1 1 1 2 4 6 7 8 7 6 6 6 7 8 9 9 9 8 8 8 8
6 5 5 3 2 2 2 1 1 4 9 9 8 7 8 9 6 6 7 8 9 9 9 10 7 5 11 13 13 18 23 23 21 21 20 19 18 17 17 16 16 16 17 18 16 16 17 18 19 18 19 18 16 15 15 15 15 14 13 12 11 11 11 10 10 9 9 8 8 6 6 5 5 4 3 2 0 1 0 2 4 5 7 7 6 5 6 6 6 8 9 9 9 8 7 6 8
4 3 3 5 3 2 3 3 2 5 10 10 9 7 9 10 6 7 6 8 11 10 8 8 6 5 10 14 20 24 25 23 22 22 20 19 18 17 16 16 16 15 16 18 17 16 17 18 18 18 18 18 17 16 15 14 15 14 13 12 12 12 11 11 10 10 9 8 7 6 6 5 6 5 3 3 1 2 3 3 4 6 6 5 5 5 6 7 7 8 9 9 9 8 7 6 6
4 2 2 5 3 3 3 4 4 5 9 9 9 7 9 9 7 8 7 9 11 10 9 9 6 7 12 20 26 26 24 24 23 22 21 19 18 17 16 16 16 15 15 16 16 16 16 17 17 17 17 17 15 15 16 15 15 14 13 13 12 12 11 11 10 10 9 8 8 7 6 6 6 5 5 4 3 2 4 5 5 7 6 5 5 5 6 9 9 9 11 10 9 8 7 6 6
5 4 3 4 3 4 3 4 5 4 8 10 9 7 8 9 8 8 9 11 11 10 11 10 9 12 15 23 27 26 24 24 23 22 21 19 18 18 17 16 16 16 16 15 15 16 15 16 16 16 16 16 15 14 16 16 16 15 14 14 13 13 12 11 11 10 10 9 9 9 7 6 6 5 5 5 4 4 5 6 6 7 6 5 5 5 6 9 9 9 11 10 9 8 7 5 5
5 4 1 6 6 2 4 3 5 5 7 9 9 7 7 9 8 7 8 11 11 10 11 11 11 14 17 21 25 26 25 23 23 22 21 19 18 18 16 16 16 16 16 16 16 15 15 15 15 15 15 15 14 14 14 15 15 15 14 14 13 13 13 12 12 11 11 9 9 9 7 7 6 5 5 6 4 4 5 5 7 6 5 5 6 5 5 8 8 6 9 9 8 7 6 5 5
5 3 4 9 6 0 4 3 4 6 6 8 8 7 8 9 8 7 8 10 8 9 12 12 13 16 19 20 22 24 24 23 23 22 21 19 18 17 16 16 16 16 16 16 16 15 16 16 15 15 15 15 14 13 13 14 14 14 14 13 13 13 13 12 11 11 10 9 9 8 7 6 6 6 5 5 4 4 4 3 5 5 3 5 5 4 4 6 7 5 6 7 7 7 6 7 7
6 6 9 13 5 1 3 3 4 6 5 8 8 7 7 8 8 7 8 7 6 9 12 14 15 17 20 20 21 22 21 22 22 22 21 19 18 17 16 16 16 16 16 15 16 16 16 16 16 15 15 15 13 13 13 13 13 13 13 13 12 12 12 11 11 10 9 9 9 7 7 6 6 6 5 5 4 4 4 4 4 4 2 3 4 3 3 4 5 5 5 6 8 8 8 7 7
7 7 12 13 4 1 2 3 5 5 5 8 7 7 8 8 9 7 8 4 3 10 13 14 17 18 21 21 20 20 20 20 21 22 22 21 20 18 17 17 16 16 16 15 16 16 16 16 16 16 15 15 14 12 12 12 12 12 12 12 12 11 11 11 10 10 9 9 9 7 7 6 6 6 5 5 5 5 5 4 4 4 2 2 2 3 4 5 5 5 6 6 7 9 9 7 7
10 6 8 9 5 4 2 2 5 4 4 7 7 7 9 8 8 8 9 5 3 9 14 14 17 19 21 21 20 20 20 20 21 22 22 22 21 20 19 18 17 17 16 15 16 16 16 17 17 16 15 15 14 13 12 11 12 11 11 11 11 10 10 10 10 9 9 9 9 7 7 6 6 6 5 5 5 5 5 4 4 4 4 4 2 3 5 4 5 5 5 6 6 8 8 8 7
11 9 7 7 7 6 5 6 6 5 5 7 8 8 9 8 7 8 10 9 5 8 14 15 17 18 19 20 20 19 19 20 22 23 22 21 21 20 18 18 17 17 16 16 16 16 17 17 17 17 16 15 14 13 12 11 11 11 11 11 10 10 10 9 9 9 8 8 8 8 7 6 6 5 5 4 5 5 5 5 5 5 5 4 3 5 6 5 6 5 5 7 7 7 7 7 7
11 12 9 9 8 9 9 9 7 7 5 8 10 9 10 9 8 8 9 11 8 9 14 16 17 18 18 18 19 19 19 20 21 22 22 20 21 20 19 19 18 17 17 17 16 16 17 17 18 17 16 16 15 14 13 12 11 11 11 10 10 10 10 9 8 8 8 8 8 8 7 6 6 6 4 3 4 4 5 6 6 6 5 4 5 6 6 6 7 6 6 8 7 7 7 6 7
9 9 10 11 10 11 9 7 8 7 7 9 10 8 10 11 7 7 9 11 9 11 14 15 17 18 17 17 17 17 18 20 21 21 21 20 20 20 20 19 18 18 18 18 17 16 17 18 18 18 17 16 16 15 13 12 11 11 11 10 10 10 10 9 9 9 8 8 7 8 8 7 6 6 3 2 3 5 6 7 6 6 4 5 6 5 5 6 7 7 6 7 7 6 6 6 7
8 7 9 10 10 10 7 7 8 7 8 10 10 9 11 12 8 7 11 13 11 12 14 16 16 16 17 17 17 15 15 19 21 21 20 20 19 20 20 19 19 18 19 19 18 17 18 19 19 19 18 16 16 15 14 13 12 12 11 11 11 10 10 10 9 9 8 8 6 7 7 7 7 5 4 4 5 5 7 7 6 5 6 6 6 5 5 5 6 7 6 7 7 5 6 6 7
11 9 10 10 11 10 9 10 9 8 9 12 10 9 10 12 9 9 14 14 12 14 14 15 16 15 16 16 16 14 15 19 20 20 20 21 20 21 21 20 20 19 18 19 19 18 19 19 19 19 19 18 17 16 14 14 13 12 12 12 11 10 10 10 10 9 8 8 7 8 8 7 7 6 4 5 6 7 7 8 7 6 7 7 6 6 6 7 8 7 7 7 6 5 6 7 6
12 11 10 10 10 10 11 11 10 10 10 13 11 7 8 11 11 11 15 15 14 15 14 14 14 14 15 15 15 14 16 18 19 20 21 22 21 22 23 22 22 20 19 19 20 20 19 19 19 19 19 19 18 16 14 14 13 13 12 12 11 11 11 10 10 9 9 8 8 9 9 9 8 7 5 5 6 7 7 8 8 8 8 8 8 8 8 8 8 7 8 7 5 5 7 6 6
11 11 10 8 8 7 11 10 10 11 10 13 13 6 7 12 14 13 15 16 16 15 15 15 13 13 14 14 15 15 16 17 19 22 22 23 22 21 23 23 22 21 19 20 21 20 19 18 18 18 19 19 18 17 15 14 13 13 12 11 11 11 11 10 10 10 9 9 9 9 10 10 9 7 6 6 6 7 8 9 9 9 8 8 8 8 7 8 7 7 7 7 4 5 6 6 6
10 10 9 9 9 6 10 10 11 12 11 13 14 6 6 11 15 15 15 16 16 15 15 15 14 15 15 14 15 14 15 18 21 23 23 23 22 21 22 23 23 22 20 20 21 21 20 19 18 18 19 20 19 18 17 14 13 13 12 11 11 11 11 11 11 11 10 10 10 9 10 10 9 9 8 8 8 8 9 9 8 7 7 8 8 7 6 6 7 6 5 5 5 5 6 6 6
10 10 9 10 10 7 8 10 12 13 11 13 14 8 5 8 14 16 16 17 17 15 15 16 15 15 15 14 14 14 14 17 19 21 24 24 23 22 22 23 24 23 22 20 21 22 21 20 19 18 18 20 19 18 17 15 14 13 12 12 12 11 12 11 11 11 11 11 10 10 11 11 11 11 11 10 9 8 9 9 7 6 6 8 7 7 8 6 5 5 4 4 4 4 6 6 6
10 10 10 10 11 9 8 9 12 14 12 13 14 11 7 7 15 15 15 17 16 15 15 16 15 14 15 13 14 14 14 16 17 20 24 24 23 23 22 22 23 23 22 21 21 22 22 21 20 19 18 19 19 18 17 16 15 14 13 13 13 12 12 12 11 11 11 11 10 10 12 14 12 11 12 10 9 8 8 8 7 6 6 7 6 7 8 5 4 5 4 4 4 4 5 6 6
11 12 9 10 13 12 12 10 12 15 13 13 14 13 9 7 13 14 14 15 15 14 14 15 15 15 14 14 14 15 15 16 17 21 25 25 23 23 22 22 23 23 22 22 21 21 22 21 20 19 18 18 18 18 17 16 15 15 14 13 13 13 13 13 12 11 11 11 11 11 13 13 11 12 12 9 7 7 8 8 8 7 7 8 7 6 5 3 3 3 4 4 4 5 5 5 5
15 14 11 11 12 11 12 11 13 15 13 13 14 13 11 9 12 13 13 13 13 13 13 13 14 15 14 14 14 14 16 16 18 22 25 25 24 23 22 22 23 23 22 22 22 21 22 21 20 20 19 18 18 18 17 17 16 15 15 14 14 15 14 13 13 12 11 11 10 11 13 12 11 12 11 8 7 8 8 8 8 7 7 6 4 4 3 1 1 2 4 4 4 5 4 4 4
18 15 13 14 13 10 12 13 14 15 13 12 14 14 13 12 13 13 12 12 13 13 13 12 13 14 14 15 15 16 16 15 18 23 25 25 25 24 23 22 23 23 23 23 23 22 22 22 21 20 20 20 19 18 18 17 17 16 16 16 15 15 15 14 14 13 12 11 9 9 11 10 10 11 9 8 8 8 7 6 6 5 5 4 2 2 2 1 2 2 3 3 4 4 4 4 3
19 15 12 13 12 11 12 14 16 16 13 11 13 14 15 15 13 14 13 13 13 14 14 13 14 14 14 15 16 16 15 14 17 20 23 26 25 25 25 23 24 25 24 25 24 24 23 22 22 21 20 21 20 19 18 18 17 17 16 16 15 15 14 14 14 13 12 12 10 10 10 9 10 10 8 8 7 7 6 5 4 4 4 4 2 1 0 1 2 1 2 3 3 3 3 4 2
18 14 12 11 11 11 11 13 18 15 10 9 14 14 14 15 14 13 15 14 12 13 14 13 14 14 13 15 16 16 15 15 16 18 21 25 27 27 26 24 25 26 25 25 25 25 24 23 23 22 21 21 21 20 19 18 18 17 16 15 14 13 13 13 13 12 12 12 11 11 10 9 10 9 8 8 7 6 5 4 5 5 5 4 2 2 1 1 2 2 3 3 3 4 5 3 1
16 14 12 10 12 12 10 9 15 14 9 9 13 13 11 13 14 14 14 14 13 14 15 14 14 14 14 15 15 16 17 17 17 18 20 23 26 28 26 25 25 25 26 26 26 25 25 24 24 23 22 21 21 21 21 19 17 17 15 14 13 12 11 11 11 11 11 11 11 11 10 10 10 8 7 7 6 6 5 5 6 6 5 4 3 2 1 2 3 3 4 3 3 6 5 5 2
17 18 14 12 14 16 11 8 11 10 11 11 11 10 9 11 14 14 14 14 15 15 15 15 14 14 15 15 16 17 18 17 18 19 19 20 23 26 28 27 26 26 26 26 27 27 25 25 24 23 22 21 21 21 21 20 18 17 15 14 14 12 11 11 11 11 11 11 12 12 11 11 10 9 8 7 7 6 6 7 7 7 6 4 3 2 2 3 4 4 4 4 4 5 4 2 2
16 19 19 17 16 17 15 12 12 8 11 13 13 9 8 12 16 15 13 14 16 15 15 16 15 15 15 15 16 17 18 18 18 19 19 19 22 26 28 28 27 26 27 27 27 27 25 25 25 24 23 22 21 21 22 20 18 17 16 16 15 13 13 13 13 12 11 11 12 11 12 11 10 9 8 7 7 7 7 8 7 6 5 4 4 3 3 4 5 5 4 4 3 2 3 3 2
13 17 21 22 19 17 18 15 13 9 9 12 15 11 8 10 14 15 14 15 17 16 16 17 15 15 15 15 16 16 17 18 18 19 20 20 22 24 27 29 29 27 27 27 26 27 26 25 25 25 23 22 21 21 22 21 19 18 17 16 15 14 14 13 13 12 11 10 10 9 9 9 9 9 8 8 7 8 8 8 8 6 5 5 4 3 4 5 4 4 3 3 2 1 2 3 4
12 16 21 23 22 20 19 16 12 9 9 11 15 14 10 8 11 15 17 17 17 17 17 17 15 16 17 17 17 18 18 18 18 19 20 20 21 24 26 29 30 28 27 27 26 26 27 26 25 25 24 22 22 22 22 22 20 18 18 17 15 15 15 13 12 12 10 9 9 8 8 8 8 8 8 8 8 8 8 8 8 7 6 5 4 4 5 5 2 2 2 2 2 2 2 2 3
15 17 19 20 21 21 20 17 11 10 10 10 14 15 10 9 10 12 16 18 18 18 18 18 17 18 19 18 19 20 20 19 19 20 21 21 22 25 28 29 30 29 28 27 27 26 27 27 26 25 25 23 22 22 23 22 20 18 18 17 16 15 15 13 12 11 10 9 9 9 8 8 9 8 8 8 8 8 8 8 8 7 6 5 5 5 6 5 3 3 3 2 3 3 2 2 2
15 19 19 17 18 19 19 17 11 11 12 12 15 16 10 9 10 11 14 16 16 16 16 17 18 17 16 16 18 20 19 19 19 20 21 21 24 27 28 29 30 29 28 28 27 26 26 27 26 26 26 24 23 23 23 23 21 19 18 18 18 16 15 14 12 11 11 10 10 10 9 9 9 9 8 8 8 9 9 8 7 7 7 6 5 5 5 5 4 4 4 4 4 3 3 2 2
17 18 18 17 17 16 15 14 11 11 12 14 18 19 14 11 10 11 12 13 14 14 12 13 15 15 14 14 16 18 17 17 18 19 20 22 25 27 27 28 30 29 28 28 28 27 27 27 27 27 27 25 24 24 24 24 23 21 20 19 19 18 16 14 13 13 13 12 11 11 11 10 9 8 8 8 9 10 9 9 8 8 7 6 5 5 5 5 5 6 5 5 4 4 4 3 2
18 15 14 15 13 11 10 11 12 13 12 14 19 23 20 14 10 11 14 16 16 14 11 13 15 15 15 15 15 17 17 17 18 18 19 20 22 24 26 28 29 29 29 29 29 28 27 27 27 28 27 27 25 24 25 25 24 23 22 21 20 19 17 16 15 15 14 14 13 12 11 10 9 9 8 9 10 11 10 10 9 8 7 7 7 6 6 6 5 5 6 5 5 5 4 4 3
17 14 13 14 11 9 10 11 12 13 12 14 18 20 19 14 12 13 15 16 17 15 14 16 17 18 17 17 17 16 17 17 18 17 18 18 19 20 22 26 28 30 30 30 30 29 28 28 28 28 28 28 26 25 25 25 24 23 23 22 21 19 19 18 17 16 15 15 13 13 12 11 11 10 10 11 11 12 12 12 11 9 8 8 8 7 7 6 5 4 5 6 5 5 5 4 4
17 15 13 14 12 11 12 12 12 13 13 17 18 16 14 12 12 16 18 16 15 15 17 18 17 16 17 18 16 13 14 16 16 17 18 18 19 19 21 26 28 29 31 32 31 30 29 28 29 29 29 28 27 26 26 26 25 24 23 23 21 20 20 19 18 17 16 15 14 14 13 13 13 12 12 12 12 13 13 13 11 10 10 9 9 8 7 7 6 5 5 6 6 5 5 4 4
17 16 15 15 12 11 12 11 12 12 12 16 18 14 11 10 10 14 18 17 14 13 15 17 15 13 12 13 14 13 14 15 14 17 19 20 21 21 23 27 29 30 32 33 32 31 29 29 30 30 29 29 28 27 26 26 26 25 24 23 22 21 20 20 20 18 17 17 16 15 14 14 14 13 13 13 12 12 13 12 12 11 11 10 10 9 8 7 7 6 6 6 6 6 5 5 5
13 14 15 15 13 12 11 12 13 13 12 13 13 11 10 10 10 10 13 15 16 14 15 17 16 14 12 10 13 15 14 14 16 19 20 21 21 22 25 28 29 31 32 33 32 32 31 29 29 30 30 29 29 28 27 26 26 25 25 25 23 22 21 20 20 19 18 18 17 16 15 14 14 13 13 13 12 12 13 12 12 12 12 12 11 10 9 8 8 8 7 6 7 7 6 6 6
10 13 16 16 16 15 12 13 14 14 14 12 11 11 11 13 13 12 12 13 15 16 17 18 18 17 14 10 11 13 13 15 18 20 20 21 21 22 26 29 30 32 33 33 33 33 32 31 30 31 30 30 30 29 28 26 26 26 26 26 25 24 23 22 21 20 19 18 17 16 16 15 14 13 13 13 12 13 13 13 12 12 12 13 12 11 10 9 8 8 8 8 8 8 7 7 7
11 12 16 16 16 17 12 11 12 14 14 11 14 17 14 13 11 11 17 18 15 16 18 19 19 17 13 11 11 13 16 18 20 20 20 20 21 22 26 30 32 34 34 34 34 34 33 32 31 32 31 31 31 30 28 27 27 26 26 26 26 25 24 23 22 21 20 19 18 17 16 15 15 14 13 14 14 14 14 14 13 12 13 13 12 12 11 10 9 9 9 9 9 8 7 8 8
19 13 14 14 14 15 13 11 12 15 13 10 15 20 16 13 10 11 17 20 18 18 19 20 19 16 14 13 13 14 16 17 18 20 19 18 20 22 26 31 33 34 34 34 34 33 33 32 31 32 32 31 31 29 28 27 27 27 25 25 26 25 25 24 22 21 20 19 19 18 18 16 16 15 15 16 16 16 16 16 15 13 14 14 14 13 12 11 11 10 10 10 10 9 9 8 8
23 18 14 13 12 13 13 13 11 12 13 11 15 17 13 12 12 13 16 18 19 21 21 20 18 17 16 15 14 13 13 14 16 18 18 20 21 24 29 32 33 34 33 33 34 33 33 32 31 31 31 30 30 29 28 27 27 27 25 25 26 25 25 24 23 22 21 21 20 20 19 18 17 17 18 19 19 19 19 18 18 17 17 17 16 15 14 14 14 13 12 11 10 10 10 10 9
18 18 16 13 11 12 14 14 12 12 13 11 12 13 12 10 11 14 16 16 17 18 20 18 16 18 17 13 13 12 12 14 16 16 18 20 21 23 29 32 32 33 33 33 34 33 33 32 31 32 31 31 31 30 28 28 28 27 26 26 26 26 26 24 23 23 23 22 21 20 19 18 18 19 19 20 21 20 20 20 20 19 20 20 20 20 18 18 18 16 15 13 11 10 10 10 9
16 16 16 16 13 12 13 14 14 15 13 11 11 12 11 9 11 13 14 14 14 15 18 18 18 19 16 12 14 14 13 14 16 15 16 18 19 21 25 29 31 31 32 34 34 33 33 32 32 32 32 32 32 31 30 29 29 28 27 27 26 26 25 24 24 24 24 23 21 20 19 19 21 22 22 23 23 22 22 21 21 20 21 22 24 23 20 19 18 17 16 15 12 11 10 10 10
Wind_Direction
168 177 183 192 207 226 175 85 290 223 205 154 89 87 92 98 109 105 94 91 79 76 79 78 69 62 81 88 82 80 72 51 51 85 101 128 144 133 131 134 133 134 135 140 146 148 142 137 135 131 133 130 124 123 123 124 125 126 125 124 125 123 121 122 122 122 124 123 117 112 108 104 101 98 96 95 93 90 89 88 86 84 81 79 77 73 71 68 67 66 63 58 56 54 51 50 49
175 186 192 204 215 231 223 171 242 250 197 97 76 81 102 113 103 84 81 84 76 78 77 80 88 87 90 89 79 72 65 67 81 86 103 126 127 120 127 134 133 133 133 137 144 148 146 142 141 137 136 132 126 122 122 123 124 127 129 128 126 124 122 122 122 122 123 121 117 113 109 105 103 101 99 96 93 92 90 90 87 85 82 80 76 72 68 64 64 62 60 55 52 50 47 45 44
188 200 206 217 218 217 228 212 232 164 96 82 87 87 95 92 79 75 82 88 89 93 92 97 93 85 91 81 74 79 80 86 97 99 113 124 120 122 130 133 131 129 131 134 141 146 147 146 143 138 136 135 131 127 125 126 125 126 130 131 126 124 124 124 125 124 123 121 117 115 110 106 105 104 102 98 94 93 92 91 88 85 82 79 74 67 63 59 54 54 55 51 45 43 42 37 36
200 217 224 229 217 214 234 222 233 69 75 73 86 85 83 83 87 85 86 92 100 105 97 101 81 56 71 78 82 89 92 95 102 106 113 117 122 130 132 132 128 127 130 135 140 144 150 149 145 140 139 139 138 135 131 130 129 129 132 133 131 128 128 130 129 127 125 122 119 115 111 108 108 105 103 99 95 93 93 92 87 84 79 74 68 61 57 55 50 47 47 44 40 33 32 28 28
215 232 237 244 239 234 260 231 202 54 60 73 83 87 93 90 94 96 98 106 108 101 100 112 93 71 70 72 83 90 98 100 100 103 107 114 124 131 132 133 128 129 131 136 141 142 150 151 145 144 143 142 144 143 137 134 132 132 134 138 139 137 137 136 134 131 128 124 120 116 113 112 110 107 103 98 96 96 95 91 87 81 74 68 61 56 53 52 49 44 38 35 33 24 19 18 20
220 238 235 238 255 278 270 244 96 68 47 75 101 91 100 100 100 104 106 105 96 92 100 108 100 95 81 67 72 74 92 106 106 108 114 121 128 131 132 134 130 131 131 136 143 142 149 150 145 146 146 145 149 147 141 136 133 133 137 143 146 145 145 142 138 136 131 127 123 119 117 116 113 108 102 98 99 99 95 89 85 78 70 64 56 54 50 48 43 37 32 27 23 17 11 11 15
221 241 220 226 253 249 257 33 75 76 48 64 104 104 106 106 109 115 115 110 103 97 92 96 104 108 98 89 85 77 88 104 110 113 118 122 127 131 133 133 130 132 131 136 142 143 149 150 146 148 149 148 151 150 146 140 134 136 140 145 151 151 149 145 141 138 134 131 126 122 120 120 116 108 102 100 103 100 95 88 83 78 70 64 55 50 44 40 33 27 25 22 18 11 8 10 13
233 257 238 245 256 225 202 56 64 73 70 66 79 91 103 113 123 124 123 120 113 109 109 115 111 101 100 107 97 85 88 97 108 113 119 123 128 131 131 131 131 133 133 133 138 146 152 151 148 149 150 151 152 151 148 143 137 141 143 146 152 154 153 148 142 138 136 133 129 127 127 124 118 110 103 102 106 105 97 90 87 82 72 60 48 40 32 28 20 14 16 16 12 5 3 4 6
237 242 245 255 257 208 104 83 88 83 86 88 85 87 98 120 134 129 126 117 113 118 121 125 114 105 104 104 101 99 96 104 114 116 121 126 128 130 130 133 132 133 133 131 138 147 153 154 152 149 150 152 152 153 151 146 142 144 146 147 151 154 153 149 143 140 138 135 133 134 136 132 120 111 106 108 112 109 97 94 94 79 61 44 33 29 24 20 13 4 5 5 3 358 354 356 1
268 244 249 262 261 143 99 86 91 88 87 94 101 106 107 121 135 132 123 113 121 118 109 110 111 116 112 106 108 111 113 121 124 121 124 127 128 130 131 133 134 135 134 134 138 146 156 161 158 154 154 155 155 156 154 148 143 144 147 148 150 151 150 147 144 141 139 136 137 140 143 137 124 116 116 122 122 111 99 96 85 61 42 31 24 24 22 18 12 2 359 360 1 358 354 356 2
287 270 263 268 284 72 90 94 93 92 95 97 100 108 109 119 136 130 117 115 122 111 110 121 118 118 113 105 102 112 125 133 130 126 128 129 131 132 132 134 136 137 135 136 139 145 156 163 163 162 159 156 156 156 154 151 145 145 149 151 152 151 149 149 147 143 142 140 142 148 151 147 139 136 133 137 129 108 94 84 65 47 34 27 21 19 19 15 11 8 5 5 6 2 2 5 10
235 267 261 264 45 54 83 98 98 101 110 107 107 112 109 122 139 131 126 121 118 118 129 140 124 120 116 110 109 127 138 139 133 130 130 132 133 132 133 135 136 136 135 137 139 143 149 157 162 164 161 156 156 154 154 153 149 149 152 156 156 155 153 151 151 148 147 147 150 156 160 160 154 150 144 141 121 104 89 76 52 39 31 19 16 15 13 13 12 14 12 10 11 7 10 10 13
244 249 260 273 38 46 86 94 111 126 114 98 100 113 123 133 130 126 127 121 128 130 121 128 133 127 120 118 124 139 144 141 136 135 135 135 135 134 135 135 135 133 134 137 138 142 146 151 157 160 160 155 155 154 154 154 153 154 155 160 160 159 157 155 154 152 151 150 153 160 164 165 160 154 145 137 122 111 87 69 27 18 19 9 10 13 9 8 12 19 22 22 22 21 21 14 11
264 268 273 304 31 25 72 103 146 136 101 97 106 120 136 127 112 123 131 128 127 114 107 130 141 125 117 125 136 149 147 142 140 139 138 137 137 136 136 135 134 133 134 136 137 143 147 149 152 155 157 154 154 154 154 156 157 159 160 163 163 161 159 156 157 155 154 153 157 163 166 168 161 154 147 144 134 114 58 23 355 2 5 4 9 13 11 7 16 25 30 31 28 28 26 18 8
247 269 276 287 218 145 62 62 141 111 102 109 116 129 126 102 117 136 141 136 106 99 117 140 141 126 139 147 150 151 146 145 144 142 140 138 137 135 135 135 134 136 137 137 140 144 148 150 150 153 156 155 155 156 157 159 160 164 164 164 164 162 160 160 161 160 158 159 161 165 170 173 163 158 162 159 141 123 61 348 342 354 358 4 9 14 15 7 19 27 27 29 26 25 21 22 17
234 275 303 296 232 155 86 41 15 101 109 111 120 141 122 108 139 132 119 127 112 123 148 143 128 133 154 153 146 145 145 147 146 143 142 140 139 138 138 137 138 140 140 140 143 148 151 152 153 156 159 158 159 160 161 163 164 165 165 165 166 165 166 166 166 166 165 165 166 172 176 173 170 171 169 167 226 279 249 309 319 340 357 5 8 20 22 11 18 23 23 23 21 19 16 27 28
268 297 336 293 258 125 116 108 18 94 106 116 136 152 127 123 140 105 97 124 128 149 155 133 122 138 148 141 139 143 145 147 147 145 144 144 145 145 144 145 146 146 146 145 146 150 152 153 155 159 160 158 162 162 161 165 166 166 166 168 170 171 172 172 173 173 172 173 174 178 179 178 185 188 180 174 220 290 298 309 317 333 352 3 11 25 28 22 23 25 21 17 18 19 23 26 16
268 229 171 266 280 93 118 106 83 113 116 127 147 152 134 138 138 123 147 141 134 155 143 127 130 131 130 130 137 143 147 150 151 149 148 152 154 152 152 154 154 153 152 151 149 151 153 154 156 159 159 157 161 162 161 166 167 167 170 173 175 177 179 179 181 180 180 184 185 185 185 199 204 193 185 180 188 240 290 315 329 334 347 2 17 30 33 28 26 29 24 17 22 24 26 19 354
246 257 169 257 303 81 113 105 103 127 121 129 147 152 138 140 140 151 174 146 142 158 141 140 138 126 126 133 140 147 152 154 156 156 155 159 160 157 157 158 160 158 157 157 155 156 156 157 160 161 159 157 161 163 162 165 168 169 173 176 176 181 185 186 188 188 191 192 192 193 192 208 213 196 194 195 198 234 283 315 331 333 345 0 22 27 21 24 19 23 23 16 19 15 11 5 342
232 263 223 258 288 71 124 112 112 118 123 135 144 150 139 136 145 171 172 143 156 164 146 152 143 136 139 140 145 151 157 159 159 161 160 162 163 161 160 161 162 162 162 161 160 162 161 160 163 164 163 162 164 166 164 166 170 172 174 178 178 183 187 188 191 192 198 197 193 199 199 204 210 208 213 218 221 233 270 311 327 332 346 354 14 7 350 11 3 360 13 5 358 349 341 345 336
212 211 253 245 261 4 135 140 133 124 135 141 139 154 144 138 150 175 166 149 168 166 155 160 150 147 148 146 150 155 160 161 163 164 162 165 166 165 164 164 164 164 166 164 164 166 165 164 166 167 167 169 170 169 169 171 175 175 175 180 181 184 187 188 191 192 198 200 195 202 204 202 215 223 221 228 228 214 230 278 309 328 348 345 360 343 320 358 348 332 356 351 336 328 327 336 331
218 182 237 245 238 349 120 150 154 124 143 145 145 158 137 144 158 171 175 169 179 161 156 159 153 152 153 153 154 157 163 164 166 167 165 166 170 170 166 166 165 165 169 168 168 171 170 168 169 170 170 172 174 173 174 175 178 178 178 182 182 183 186 187 190 193 196 199 202 207 208 206 221 232 229 234 234 226 233 239 273 312 336 332 343 321 313 337 328 329 344 340 333 329 330 332 324
237 188 217 244 251 310 98 150 161 136 168 155 150 148 133 162 164 169 183 167 150 146 149 153 150 156 158 158 159 161 166 167 169 169 169 170 172 175 170 170 169 168 173 173 171 174 174 173 172 173 173 175 177 178 179 178 182 184 181 183 185 184 187 190 192 195 195 198 205 210 215 215 222 232 237 246 252 251 250 241 265 301 312 315 325 310 319 326 322 332 334 330 330 325 326 327 321
231 235 215 233 234 224 233 204 166 159 202 155 153 158 151 179 162 169 184 135 107 137 142 148 146 158 162 160 164 165 167 170 172 172 173 173 174 177 174 173 172 171 175 175 173 176 179 177 175 177 177 179 181 182 183 183 186 188 184 184 189 187 188 194 195 193 192 197 205 211 220 226 229 235 236 248 260 262 266 262 269 283 291 299 315 314 312 312 311 315 319 320 323 321 322 323 321
218 246 241 227 221 222 236 241 183 172 215 154 165 178 158 179 157 172 182 132 133 149 140 145 147 159 164 164 169 167 168 173 174 174 176 176 177 177 176 177 175 174 176 176 177 179 181 181 179 180 180 182 184 186 188 189 190 191 188 187 192 191 193 198 195 194 194 197 205 208 216 227 235 242 241 251 264 273 283 282 277 281 294 306 316 321 320 314 305 308 319 318 320 319 317 322 324
211 221 233 231 228 230 228 234 205 181 212 168 177 187 159 171 154 169 182 134 148 162 141 146 152 162 167 168 172 168 171 176 176 178 177 177 180 179 179 180 177 178 179 179 180 181 184 184 184 184 183 184 187 189 192 193 192 194 194 192 194 194 199 202 196 199 200 200 204 203 210 221 232 244 244 245 264 274 274 272 277 283 290 298 296 307 316 311 309 319 324 314 320 319 313 321 325
223 213 231 229 228 234 221 227 217 189 203 179 182 191 160 169 167 172 174 139 152 161 147 154 158 165 169 170 173 169 174 178 178 181 178 177 182 182 183 182 180 180 181 183 184 183 185 186 186 187 186 186 189 192 194 195 194 196 197 197 199 198 202 204 203 209 207 207 200 191 203 215 225 244 246 229 247 266 267 263 269 276 274 282 293 295 294 299 308 316 315 309 315 315 313 324 323
260 243 249 236 232 241 229 235 229 201 197 179 185 199 170 171 183 182 162 146 162 166 157 163 164 167 171 172 171 170 179 180 179 182 181 180 182 185 187 184 183 183 181 186 186 185 187 188 188 188 188 189 191 195 195 196 198 199 200 201 204 202 204 206 209 213 212 213 197 183 198 210 218 230 235 230 240 258 265 266 265 268 266 270 282 270 270 291 296 298 296 294 302 309 311 315 310
255 248 256 246 233 234 230 230 223 211 187 169 188 205 182 180 192 181 157 152 170 171 164 168 169 169 171 173 170 172 183 182 181 186 185 183 185 188 190 187 186 187 185 187 187 188 189 189 190 189 191 191 193 197 196 198 201 201 203 205 207 204 206 210 212 215 213 213 204 198 204 207 213 215 216 226 241 255 260 267 265 261 263 259 264 265 270 282 284 289 285 278 294 313 307 305 303
240 239 247 247 232 218 218 220 213 209 169 163 195 210 189 190 203 187 157 162 176 173 170 173 175 171 173 176 171 175 184 184 185 187 187 186 188 190 191 190 188 189 187 187 189 191 190 190 190 190 192 194 196 198 198 200 202 204 205 206 208 207 210 214 215 217 215 215 211 208 210 211 216 209 205 220 240 253 255 261 259 256 259 253 259 265 264 273 281 287 284 284 299 308 302 305 309
232 234 236 240 244 215 196 202 205 195 154 169 200 217 206 191 196 186 159 170 181 175 176 176 178 174 175 179 175 179 184 187 188 188 191 189 189 191 191 191 190 191 188 187 189 191 192 192 192 192 192 195 197 198 200 202 203 206 207 207 209 211 214 216 217 219 216 217 216 210 210 213 215 208 204 220 240 254 257 257 255 249 245 247 261 261 250 264 278 272 277 287 292 300 305 307 310
224 230 229 222 239 222 179 181 196 188 157 183 204 220 221 181 178 176 163 178 181 177 182 178 181 178 178 181 179 183 183 187 192 192 193 190 190 192 191 192 191 192 190 188 188 190 193 193 193 194 192 194 197 197 200 203 204 208 210 210 211 212 216 219 218 221 218 218 220 214 206 202 205 211 215 232 244 252 256 256 259 248 234 240 254 259 253 262 277 268 267 284 293 309 309 305 309
216 225 232 218 218 213 179 171 191 192 168 190 207 225 240 168 164 167 169 184 181 181 186 181 185 181 179 184 183 187 183 186 193 195 194 191 192 191 192 193 192 193 191 189 188 189 193 193 194 197 194 194 196 197 199 201 204 208 210 211 214 214 217 220 219 220 222 219 217 213 206 199 201 212 223 239 245 245 249 250 255 250 245 252 253 258 258 253 266 268 266 286 302 310 300 302 308
210 215 230 230 217 205 187 177 194 194 177 191 205 221 243 165 156 165 175 186 183 186 188 184 189 184 182 187 188 189 186 187 194 196 195 193 193 191 191 192 192 193 191 191 190 189 193 193 194 199 197 194 195 197 198 200 203 207 211 212 214 217 219 224 223 220 222 220 216 213 209 202 199 207 220 237 244 238 240 241 239 237 243 252 250 259 268 267 268 275 285 294 299 296 296 306 313
214 211 216 232 225 208 190 180 190 194 186 193 203 216 229 166 151 166 178 188 189 188 190 188 190 188 186 190 194 192 189 192 194 195 195 193 192 191 191 192 191 192 191 191 190 189 192 194 194 197 198 196 195 197 199 201 205 208 212 212 214 218 220 224 225 223 223 221 219 213 206 203 206 205 205 226 240 225 227 233 229 223 230 241 243 255 273 284 281 301 310 299 294 287 289 304 313
227 221 213 222 229 218 197 179 178 192 198 198 202 214 218 181 162 173 181 190 195 193 192 192 191 191 190 193 198 196 194 195 193 194 194 192 192 191 190 190 190 191 192 190 190 190 192 194 194 195 198 198 194 195 199 202 205 208 211 212 214 216 218 222 224 225 224 223 220 215 210 205 209 206 203 221 225 214 224 230 223 218 229 241 241 251 263 287 340 326 304 297 295 285 277 283 289
235 230 222 222 229 225 205 185 172 187 206 207 204 211 218 205 180 177 185 190 195 200 199 195 194 193 193 197 199 198 199 198 192 193 194 192 191 191 189 189 190 191 192 190 190 191 192 193 195 194 196 198 196 196 199 201 203 206 208 211 213 214 215 218 221 224 225 226 222 223 222 204 201 211 220 228 213 211 223 219 214 211 216 214 187 234 277 351 354 312 295 288 279 276 272 260 256
237 237 231 225 228 231 216 189 169 183 207 209 207 212 217 219 199 181 187 196 196 200 201 199 200 198 195 199 202 201 199 199 194 190 193 193 191 191 190 189 191 191 191 192 192 192 193 194 196 196 195 196 198 198 199 201 202 204 206 210 215 215 214 217 222 224 227 228 216 217 223 204 205 218 223 223 210 208 218 205 196 187 181 175 167 203 240 306 281 284 283 269 252 252 265 270 283
235 238 233 227 224 229 230 197 169 177 203 208 210 216 214 215 214 197 190 197 203 203 202 201 202 203 201 199 201 204 201 200 198 190 191 194 193 191 191 191 192 192 192 192 193 193 193 195 197 197 196 195 198 199 199 201 203 206 208 211 217 220 219 220 226 227 228 228 214 211 210 198 207 214 211 219 213 205 208 197 180 168 165 166 174 193 187 244 259 250 249 255 261 242 223 215 291
232 235 230 231 225 221 229 199 166 168 195 214 215 221 219 210 215 214 201 197 202 207 208 205 203 205 208 205 201 203 203 202 201 195 191 193 194 193 191 191 193 193 193 193 193 194 194 196 197 196 197 196 196 198 200 202 203 205 210 213 219 225 224 223 225 225 226 225 218 216 211 204 209 210 206 206 199 195 194 187 175 164 163 162 164 181 220 237 230 225 228 226 260 265 226 175 163
229 233 230 230 226 226 225 179 157 176 201 218 224 226 227 217 214 215 208 203 203 206 211 210 208 207 208 211 206 203 204 204 203 200 194 193 196 195 192 191 193 194 194 194 194 195 195 195 196 196 196 196 197 198 200 202 202 203 207 212 217 222 224 223 223 222 223 223 223 222 217 213 213 208 202 196 191 190 184 177 171 167 167 166 176 200 220 224 222 216 208 206 238 281 278 205 164
225 229 231 234 227 230 230 185 164 203 212 210 221 227 229 222 220 217 211 209 206 205 212 212 211 210 208 211 210 206 205 204 205 203 198 195 196 197 194 192 194 195 195 195 196 196 195 194 194 195 196 197 199 199 199 199 200 201 203 207 212 215 218 220 221 222 222 221 224 221 212 209 208 203 199 195 191 182 175 175 174 176 178 177 190 208 211 214 221 212 199 214 225 262 292 288 244
224 219 223 234 235 235 238 210 186 215 219 204 214 226 233 223 219 218 217 217 209 205 212 213 211 212 213 214 211 207 205 203 203 204 202 198 196 197 196 194 196 197 196 195 196 196 196 194 193 194 195 198 199 199 199 198 199 200 201 207 212 214 217 219 219 222 222 218 219 215 205 199 197 200 198 191 185 177 176 179 180 185 190 194 199 202 213 221 213 194 199 214 193 182 243 274 264
228 219 215 224 233 238 243 231 211 217 220 210 214 224 236 232 221 216 218 222 217 210 210 211 213 213 214 217 216 209 205 203 201 202 203 201 198 197 198 196 196 198 196 195 196 196 195 194 192 193 195 197 198 198 197 197 197 198 200 206 212 215 219 219 215 217 217 213 215 210 202 194 189 193 192 184 180 181 182 183 185 190 198 210 213 203 217 229 202 163 191 181 154 179 212 264 290
228 228 224 220 224 234 244 243 225 213 221 220 216 221 232 238 229 221 219 220 220 216 211 208 213 217 214 215 220 214 203 202 202 200 201 202 200 199 198 197 197 198 197 194 195 195 193 193 192 192 194 196 197 196 195 196 196 196 199 203 209 214 217 218 214 213 211 207 208 205 199 194 187 185 185 182 182 186 188 189 188 192 204 216 219 213 216 218 199 189 196 178 179 192 191 234 282
227 231 238 233 223 224 235 243 234 218 224 229 221 219 229 241 231 223 223 221 218 217 214 208 209 216 216 215 225 222 205 200 203 200 199 201 202 200 198 197 197 198 197 195 194 194 192 192 191 191 193 195 196 195 195 195 194 195 200 203 207 210 211 214 213 209 206 201 201 198 194 193 188 185 186 187 190 193 194 196 193 201 216 222 220 218 213 203 196 200 205 201 200 192 183 207 228
228 230 237 240 231 223 227 236 240 233 225 225 226 223 226 239 230 218 224 226 222 217 216 213 206 208 215 214 224 232 219 202 201 200 196 198 201 200 197 196 196 197 197 195 193 194 192 191 191 192 193 194 196 196 196 196 195 196 200 203 206 208 207 207 208 207 202 197 197 197 193 191 189 188 191 193 197 198 195 197 204 211 216 215 215 213 210 206 201 198 198 198 199 197 194 199 218
225 226 229 236 233 230 233 229 230 238 230 220 223 224 226 235 230 218 221 224 222 216 217 223 213 203 210 210 210 226 231 212 200 200 196 194 197 198 197 195 194 195 196 195 194 193 193 192 191 192 193 195 195 195 197 198 197 198 201 204 206 206 207 206 205 206 204 199 198 197 192 190 189 189 195 198 201 201 195 199 210 213 206 203 207 206 205 212 212 196 187 194 199 195 199 200 209
219 220 222 227 224 222 230 225 223 232 237 227 222 223 228 234 233 228 227 226 220 208 210 224 219 201 200 206 201 208 225 219 203 199 196 192 193 196 196 193 191 193 195 195 194 193 193 192 192 192 193 195 196 196 198 199 200 200 201 204 205 205 207 209 209 207 206 202 198 197 194 190 188 189 196 202 203 200 196 201 206 205 200 198 201 201 199 205 213 201 187 194 202 195 202 209 209
211 212 217 222 218 218 222 222 226 229 231 232 229 230 233 232 231 229 226 226 222 209 207 220 227 210 198 198 192 192 219 223 209 202 197 192 192 193 194 192 191 193 194 194 194 193 192 192 192 192 193 195 196 197 198 200 201 201 202 203 204 204 206 210 212 210 207 204 200 199 198 193 190 192 198 203 204 199 195 196 199 199 197 195 195 196 196 197 200 202 197 199 206 205 211 220 221
211 210 218 224 220 221 223 218 223 229 232 231 228 230 233 230 229 225 220 220 221 214 210 215 223 226 214 193 176 183 211 218 212 210 203 195 192 191 192 191 191 192 193 194 194 192 191 191 191 191 192 194 195 196 198 199 201 201 201 202 202 203 206 208 211 211 209 207 204 202 201 199 198 198 200 203 205 203 197 195 195 195 193 190 191 193 193 194 195 199 203 207 214 213 214 228 234
209 209 220 223 214 221 235 232 227 230 236 233 227 227 231 233 231 219 217 221 220 218 218 217 216 221 222 199 179 188 203 208 210 212 207 198 193 190 191 192 191 191 192 193 193 191 190 190 190 190 191 192 194 195 196 198 200 201 201 202 202 202 204 206 209 210 209 209 207 203 203 204 203 203 203 202 204 204 200 197 195 194 191 187 187 190 191 193 194 199 204 209 219 221 218 227 238
199 208 222 220 213 222 238 240 234 232 234 232 230 233 229 229 227 214 216 221 217 220 223 222 224 222 215 201 194 196 199 208 213 210 204 198 193 191 191 191 191 191 191 192 190 189 189 189 188 189 190 192 193 193 195 196 197 200 201 201 201 201 202 205 207 207 207 207 206 204 205 205 205 206 202 197 199 201 200 198 195 194 191 187 186 187 191 193 194 201 208 211 220 226 225 227 236
213 208 216 217 219 225 233 236 232 232 237 233 231 236 232 226 221 209 219 220 209 217 225 223 229 230 216 202 206 204 201 209 214 207 201 198 194 192 192 192 192 191 190 190 188 187 188 188 187 187 188 190 192 191 192 194 195 199 201 200 200 201 202 204 205 205 204 204 203 203 204 205 205 204 197 190 190 194 194 192 193 195 191 189 189 187 189 194 196 204 211 215 222 228 231 233 237
232 230 214 210 218 221 220 228 230 230 236 232 231 238 236 231 221 200 218 223 209 211 222 222 225 229 215 200 204 210 205 207 209 204 199 198 196 194 193 194 194 191 189 188 187 185 186 187 187 188 190 191 191 192 191 191 194 198 201 199 199 200 201 202 203 202 201 201 202 200 202 204 202 198 192 183 182 186 188 187 191 194 192 192 192 188 189 194 197 202 210 216 222 225 229 236 239
228 238 225 212 220 222 218 225 230 233 238 232 232 237 232 231 231 210 215 225 214 212 222 223 226 233 221 198 196 206 205 207 207 201 197 197 198 196 195 195 193 190 188 187 186 186 187 188 188 190 192 191 192 192 191 191 194 198 199 197 197 198 199 200 199 199 199 201 202 198 200 204 199 193 188 182 181 185 187 187 188 190 191 192 192 191 192 194 197 200 207 215 220 220 224 231 237
211 225 226 217 214 221 224 225 223 227 238 237 233 238 233 230 237 224 217 223 218 216 222 218 218 234 233 207 193 195 195 206 208 202 200 198 198 198 196 196 194 190 189 188 187 188 189 190 190 192 192 192 194 194 191 191 195 199 198 195 196 197 198 198 197 197 198 200 200 197 198 200 196 189 185 182 183 186 188 188 189 189 191 191 191 192 192 193 195 198 205 215 222 221 221 226 232
209 211 221 224 218 216 221 223 220 222 233 240 239 244 235 220 232 228 214 220 226 221 221 211 203 218 230 216 202 191 186 202 206 205 208 202 198 199 196 196 196 192 190 190 188 189 191 192 193 194 195 196 198 196 192 192 194 197 197 195 196 196 196 196 196 195 196 198 199 196 193 193 191 188 186 185 185 187 190 190 190 191 193 195 195 193 192 192 192 195 203 212 218 220 221 226 230
Height
764 766 765 768 767 768 769 778 796 785 784 793 771 765 761 747 747 752 759 761 758 756 749 750 752 754 762 771 774 775 777 781 787 793 803 799 790 794 795 797 800 802 805 807 809 811 812 814 815 816 818 820 821 821 822 823 824 825 826 827 829 830 831 832 832 833 834 835 836 836 836 837 838 838 838 839 839 839 839 840 840 840 840 840 840 840 840 840 841 841 841 840 840 840 840 839 839
764 766 764 767 764 771 774 776 798 788 786 798 773 763 757 743 748 757 765 764 761 754 748 750 752 754 757 761 765 772 779 778 778 783 788 788 789 794 795 798 800 802 806 808 810 812 814 815 816 817 818 820 821 822 823 824 825 826 827 828 829 831 831 833 833 834 835 836 836 837 837 837 838 839 839 840 840 840 840 840 840 840 840 841 841 841 841 841 841 841 841 841 841 840 840 840 839
764 763 762 766 762 767 771 775 789 781 787 795 772 757 753 754 757 757 757 755 754 751 751 752 754 756 759 768 772 778 786 779 776 780 784 788 791 794 797 798 800 803 805 808 811 812 815 815 817 818 819 820 821 822 824 825 826 827 828 829 830 831 832 834 834 835 836 836 837 837 838 838 839 839 840 840 840 841 841 841 840 841 841 841 842 842 842 842 842 842 841 841 841 841 841 840 840
762 762 761 762 767 769 771 781 776 766 780 782 772 759 753 760 757 755 752 751 750 748 753 757 762 759 763 779 775 777 785 778 776 779 784 790 793 795 797 799 801 803 805 809 811 813 815 816 817 819 820 821 822 823 824 826 827 828 829 830 831 832 833 834 835 836 836 837 837 838 838 839 839 840 840 841 841 841 841 841 841 841 842 842 842 842 842 842 842 842 842 842 841 841 841 841 840
761 762 759 760 771 771 768 769 757 761 775 773 773 761 752 755 753 756 752 750 748 749 755 758 768 763 765 775 771 780 784 778 778 779 785 791 794 796 798 800 802 804 807 809 811 814 815 816 818 819 821 822 823 824 825 827 828 829 830 831 832 833 834 835 836 836 837 838 838 839 839 840 840 841 841 841 842 842 842 841 842 842 842 842 842 843 842 842 842 842 842 842 842 841 841 841 840
761 759 758 759 760 761 766 759 753 763 760 755 767 759 750 752 751 755 752 750 747 748 752 755 765 769 775 774 769 777 778 778 781 781 785 791 795 797 798 800 802 804 807 809 812 814 815 817 818 820 821 822 824 825 826 827 828 829 830 831 832 834 835 836 837 837 838 838 839 839 840 840 841 841 842 842 842 842 842 842 842 842 843 843 843 843 842 843 843 843 843 842 842 841 841 840 840
758 759 758 762 761 759 767 756 754 763 751 746 756 755 750 750 749 753 755 756 755 752 752 755 758 769 782 777 775 777 774 778 779 782 787 790 795 796 798 800 802 805 806 809 812 814 815 817 818 821 822 823 825 826 827 828 829 830 831 832 833 834 835 837 837 838 839 839 840 840 840 841 841 842 843 843 843 843 843 843 843 843 843 843 843 843 843 843 843 843 843 842 842 841 841 840 840
756 760 756 769 772 758 758 755 755 759 752 746 746 750 749 748 748 752 757 758 760 757 756 757 755 772 783 776 784 782 776 780 780 786 788 791 795 796 799 800 802 805 807 810 812 814 815 817 819 821 822 824 825 827 828 829 830 831 832 833 834 835 836 837 838 839 839 840 840 840 841 841 842 843 843 843 843 843 843 843 843 843 843 843 843 843 843 843 843 843 843 842 842 841 840 840 840
754 761 761 771 769 750 752 758 757 754 753 750 749 750 747 746 747 751 757 757 758 758 759 756 757 778 784 779 789 783 779 784 784 788 789 793 795 797 799 800 803 805 808 810 812 814 816 818 819 821 823 824 826 827 828 829 830 831 833 834 835 836 837 838 839 840 840 841 841 841 841 841 842 843 844 844 843 843 844 844 843 844 843 843 843 844 844 843 843 843 842 842 841 841 840 840 839
760 763 766 769 759 751 757 759 757 755 752 749 750 750 748 747 747 750 754 758 757 758 759 752 760 778 782 787 790 783 784 786 786 789 791 794 795 798 800 801 804 805 808 810 813 815 817 819 819 822 823 825 826 827 829 830 831 832 834 835 836 837 838 839 839 840 841 841 841 841 842 842 843 843 844 844 844 844 844 844 844 844 844 844 844 844 844 843 843 842 842 842 841 841 840 840 839
775 768 765 769 760 759 762 761 760 757 751 748 750 748 746 747 749 752 753 758 756 759 760 756 767 774 779 789 789 784 785 787 787 790 792 795 796 798 800 802 804 805 808 810 813 815 817 819 820 823 823 826 827 828 830 830 831 833 834 835 837 837 838 839 840 841 841 842 842 842 842 842 843 844 844 844 844 844 844 844 844 844 844 844 844 844 844 843 843 842 842 842 842 841 840 840 839
780 774 769 774 764 761 756 757 761 756 752 752 755 748 743 746 751 756 756 760 758 762 762 760 767 770 784 794 788 786 785 788 788 790 793 795 797 799 800 802 804 806 808 810 813 815 817 819 821 823 824 826 827 829 830 830 832 833 835 836 837 838 839 840 840 841 841 842 842 842 842 842 843 844 844 844 844 844 845 845 844 844 844 844 844 844 844 843 843 842 842 842 842 841 840 840 840
773 772 771 770 757 757 753 755 759 756 757 754 754 748 743 748 753 754 756 759 759 765 762 756 759 765 786 791 785 785 785 787 789 792 794 795 798 799 801 803 805 807 809 811 813 816 818 820 821 823 825 826 828 829 830 831 833 833 835 836 837 838 839 840 840 841 841 842 842 842 842 842 843 844 844 844 844 845 845 845 844 844 844 845 844 844 844 843 843 842 842 842 842 841 841 840 840
767 764 762 764 755 754 753 757 757 757 762 754 750 746 744 748 749 749 754 762 762 761 758 751 753 768 786 789 790 787 784 787 789 793 794 797 799 799 802 803 806 808 810 812 814 816 818 820 822 824 825 827 828 829 831 831 832 834 835 836 837 838 839 840 840 841 841 842 842 842 842 842 843 844 844 844 844 845 844 844 844 844 844 844 844 844 844 843 843 843 842 842 842 841 841 841 840
761 758 754 761 760 757 756 757 752 756 762 752 748 746 746 747 744 748 752 762 763 751 753 752 752 772 785 788 792 784 782 788 789 793 795 798 800 801 804 804 807 809 811 813 814 817 818 821 822 824 825 827 828 829 831 832 833 834 835 837 837 838 839 840 840 841 841 842 842 842 842 842 843 843 843 844 844 844 844 844 844 844 844 844 844 843 843 843 843 843 842 842 842 842 841 841 841
747 751 762 768 764 763 760 754 751 757 759 749 746 744 751 751 743 750 746 750 760 752 754 759 756 766 774 777 783 778 781 788 789 793 795 799 801 803 804 805 809 809 812 814 815 817 818 821 822 824 825 827 829 829 831 832 834 834 835 837 837 839 839 840 840 841 841 842 842 842 842 842 843 844 843 844 844 844 844 844 844 844 844 844 844 843 843 843 843 842 842 842 842 841 841 840 840
738 754 782 782 765 763 760 755 757 758 755 748 747 744 755 758 745 746 742 743 759 759 757 760 757 759 764 768 774 777 783 787 789 793 795 799 801 803 805 807 808 809 812 814 816 818 818 820 822 823 825 827 828 829 832 832 834 834 835 837 837 838 839 840 840 841 841 842 842 842 842 843 843 844 844 844 844 844 843 844 844 844 844 844 844 843 843 843 843 842 842 842 841 841 841 840 840
748 763 786 787 766 757 752 750 749 747 751 750 748 745 752 760 753 748 749 753 759 761 760 760 759 758 760 765 773 780 784 787 789 792 795 798 799 801 804 806 808 809 812 814 816 817 818 820 821 823 824 827 828 829 831 832 833 834 835 836 837 838 838 840 840 841 841 842 843 842 843 843 843 844 843 844 844 844 843 843 843 843 844 844 843 843 843 843 842 842 842 842 842 841 841 840 840
754 760 773 779 759 746 740 739 740 741 747 748 746 744 747 755 753 750 757 763 762 766 767 764 766 765 764 768 775 781 784 786 789 791 794 796 798 800 802 805 807 809 811 813 815 816 818 820 821 823 824 826 828 829 830 832 833 833 835 836 836 838 838 839 840 840 841 842 842 843 843 842 842 843 843 844 844 843 842 843 843 843 843 843 843 842 842 842 842 842 842 842 842 841 841 840 840
752 756 772 772 749 739 735 733 735 736 739 744 747 743 746 749 748 750 757 763 764 768 770 769 774 773 771 771 774 781 784 786 788 790 793 795 797 799 801 804 806 808 810 812 814 816 818 819 821 822 824 826 827 829 830 831 832 833 834 835 836 837 838 839 839 840 840 841 842 842 842 842 842 842 843 843 843 843 842 842 843 843 843 843 843 842 842 842 842 842 842 842 841 841 841 840 840
750 755 771 763 742 740 735 731 732 731 734 741 745 745 749 746 744 750 754 765 769 764 762 766 772 772 772 773 774 779 783 785 787 790 792 795 797 799 801 803 805 808 809 811 813 815 817 819 820 822 824 825 827 828 829 830 831 832 833 834 836 836 838 838 839 840 840 841 841 842 842 842 842 841 842 842 843 843 843 843 843 843 843 843 843 843 842 842 842 842 842 842 841 841 841 840 840
747 751 758 750 737 741 734 727 729 729 732 738 745 749 748 744 746 750 752 765 765 754 753 756 762 767 769 772 774 777 781 783 786 789 792 795 797 799 801 803 805 807 809 810 812 815 816 818 820 821 823 824 826 827 828 830 831 832 833 833 835 836 837 837 838 839 839 840 840 841 841 841 841 841 841 841 842 843 843 843 843 843 843 843 843 843 843 843 843 842 842 842 842 841 841 841 841
747 747 746 740 731 737 732 726 728 728 733 740 744 743 742 748 752 749 750 756 749 741 745 750 756 761 765 769 773 777 780 782 784 787 791 794 796 798 800 802 804 806 808 809 812 815 816 817 820 821 823 824 825 827 828 829 830 831 832 833 834 835 836 836 837 838 839 839 840 840 841 841 841 841 841 841 842 842 842 843 843 843 843 843 843 843 844 843 843 842 843 843 842 842 841 842 841
743 746 738 733 729 732 729 724 726 727 734 736 736 738 743 753 754 749 749 748 741 737 741 746 753 758 763 768 772 775 778 780 783 786 789 791 794 796 798 800 803 805 807 809 811 813 815 817 819 820 822 824 825 826 828 829 830 830 831 833 833 834 835 836 836 837 838 839 839 840 840 840 840 840 840 840 841 841 842 842 842 843 843 843 842 843 843 843 843 842 843 842 842 842 842 841 841
738 742 734 729 729 727 724 723 724 727 730 729 734 741 745 747 746 750 749 745 742 739 740 746 753 759 763 768 771 773 776 779 781 784 787 790 793 795 797 799 801 804 806 808 810 812 814 816 818 820 821 823 824 825 827 828 829 830 831 832 833 834 834 835 836 836 837 838 838 839 840 840 840 840 840 840 841 840 841 842 842 842 842 842 842 843 843 843 843 842 842 841 841 842 842 842 841
730 732 731 728 729 725 723 723 723 727 727 727 738 744 743 739 743 753 747 742 744 739 743 749 754 761 764 768 770 772 776 777 779 782 785 788 791 793 796 798 800 803 805 807 809 811 813 815 817 819 820 822 823 825 826 827 828 829 830 831 832 833 834 834 835 836 836 837 838 838 839 839 839 839 840 840 841 841 841 842 842 842 842 842 842 842 843 843 843 843 842 841 841 841 841 841 841
716 721 725 723 727 722 718 722 721 724 726 727 740 746 742 737 746 759 747 739 743 743 748 751 755 763 763 766 768 770 774 775 778 780 782 786 789 792 794 796 798 801 805 806 808 810 812 814 815 817 819 821 822 823 825 826 827 828 829 830 831 832 833 834 834 835 835 836 836 837 838 838 839 839 839 840 840 841 841 842 842 842 842 842 842 842 842 842 842 842 841 841 841 841 841 841 841
714 721 725 722 723 720 717 723 722 723 728 726 734 743 741 740 749 755 743 739 744 747 753 753 757 761 762 765 767 770 773 773 777 778 780 784 787 790 792 794 797 800 802 805 806 808 810 812 814 816 818 819 821 822 823 825 826 827 828 829 830 831 832 833 833 834 834 835 836 836 837 838 838 839 839 839 840 840 840 841 842 842 842 842 842 841 841 841 841 841 840 841 841 840 841 841 840
719 722 734 731 724 727 724 723 722 724 730 723 730 751 752 749 751 743 736 740 744 748 754 755 757 759 761 763 766 770 771 771 775 776 779 782 786 788 790 792 795 798 800 803 805 806 808 810 813 814 816 818 819 821 822 824 825 826 827 828 829 830 831 832 832 833 833 834 835 835 836 837 837 838 838 839 839 840 840 840 841 841 841 841 841 840 840 840 841 841 840 840 840 840 840 840 840
724 725 736 738 735 737 725 719 722 724 727 720 735 768 767 752 746 736 733 740 745 751 755 755 757 758 761 762 765 769 769 770 772 775 778 780 784 786 788 791 793 796 798 801 803 804 807 809 811 813 815 817 818 820 821 823 824 825 826 827 828 829 830 831 831 832 833 833 834 835 835 836 837 837 838 838 839 839 839 839 839 840 840 840 840 839 839 839 839 841 840 840 840 840 840 840 839
729 733 736 740 748 742 721 717 725 729 727 719 737 771 766 748 742 733 732 738 744 752 754 754 756 757 760 761 764 768 767 769 770 773 776 778 781 783 786 789 791 794 796 798 801 803 805 807 809 811 813 815 817 819 820 822 823 824 825 826 827 828 829 830 830 831 832 832 833 833 834 835 836 836 837 837 837 838 838 838 838 838 839 839 839 839 839 838 839 840 840 841 840 840 840 839 839
731 745 749 743 746 741 723 718 723 731 731 722 740 767 758 740 737 730 731 737 742 750 753 752 755 755 759 760 762 766 766 767 769 771 773 775 779 781 783 786 789 792 794 797 799 802 804 806 808 809 811 814 815 817 819 821 822 823 824 825 826 827 828 829 829 830 830 831 832 832 833 833 834 835 835 836 836 836 837 837 837 837 837 837 838 839 839 839 839 839 839 840 839 840 840 839 839
734 745 753 742 742 744 735 725 718 723 732 731 740 758 753 737 731 728 730 735 740 748 751 751 753 754 756 759 760 763 765 766 767 768 770 773 776 778 781 784 787 789 792 795 797 800 802 804 806 808 809 812 813 816 817 819 821 822 823 824 825 826 827 827 828 828 829 829 830 831 831 831 832 832 833 834 834 835 835 836 837 836 837 837 837 838 838 838 838 838 838 839 839 840 840 839 838
741 740 745 738 736 742 743 736 722 718 732 740 740 749 748 734 729 730 730 732 738 745 748 749 751 752 754 756 758 760 763 766 766 765 767 770 773 776 779 782 784 787 790 793 795 798 800 802 804 806 808 810 812 814 816 818 819 820 822 823 824 825 825 826 826 827 827 828 829 829 829 829 830 830 831 832 833 834 834 835 835 835 836 836 836 837 837 837 837 837 838 838 839 839 839 838 837
741 739 742 741 734 734 739 739 727 721 734 743 745 749 744 733 729 732 730 730 736 741 743 745 746 749 752 754 756 757 759 762 762 761 764 767 770 774 777 780 782 785 788 791 793 796 798 800 802 804 806 808 810 812 814 816 817 819 820 821 823 823 824 824 825 825 826 827 827 827 827 828 829 829 829 830 831 832 833 833 834 834 835 835 835 836 837 837 837 837 838 838 838 839 838 838 838
731 728 732 739 735 728 726 727 721 722 737 743 745 749 743 736 734 734 731 729 734 738 738 741 744 746 749 752 754 754 756 758 757 758 761 764 768 771 774 777 780 783 785 788 791 794 796 798 800 802 804 806 809 811 812 814 816 817 818 820 821 821 822 823 823 824 824 825 825 825 825 826 828 828 828 829 829 831 831 832 832 833 834 834 835 836 836 837 837 838 838 838 838 838 838 838 838
721 722 724 728 730 726 716 717 716 716 737 743 738 743 741 736 734 732 731 731 734 738 739 740 741 743 746 749 751 751 753 752 751 755 759 761 765 768 772 775 777 780 783 786 788 791 793 796 798 799 802 804 806 808 810 812 813 815 816 817 818 819 820 821 821 822 823 824 824 824 824 826 826 826 827 827 828 829 830 831 831 832 833 834 835 835 836 837 837 838 837 838 838 837 837 837 837
720 722 724 725 725 722 707 708 712 713 733 742 734 741 742 734 730 728 729 733 736 736 738 740 739 740 742 745 748 748 748 747 747 752 755 758 762 765 769 772 774 777 779 783 785 788 791 793 795 797 800 802 804 805 807 809 810 812 813 814 815 816 818 819 820 820 821 822 823 823 823 824 825 824 826 826 827 829 829 830 831 832 833 834 835 835 836 836 837 837 837 837 837 837 837 836 837
723 721 724 727 721 717 708 701 705 713 731 742 737 741 741 731 726 724 725 731 732 729 731 735 736 738 740 741 744 745 746 747 746 749 752 755 758 761 765 768 771 773 776 780 782 785 788 790 792 795 797 799 801 803 805 806 808 809 811 812 813 814 816 817 818 819 820 820 821 821 821 822 823 824 825 826 827 828 829 830 830 832 833 833 835 835 835 836 836 836 836 836 836 836 836 836 837
723 721 725 729 717 718 722 710 707 714 726 736 737 740 737 729 727 724 721 723 725 725 725 726 728 733 735 735 737 741 744 746 746 746 747 750 754 757 761 764 767 770 773 776 779 782 784 787 789 792 794 797 799 801 802 804 806 808 810 811 812 813 814 815 816 817 818 819 820 820 820 822 822 823 824 825 827 828 829 830 830 832 832 833 834 834 835 835 835 836 836 836 836 835 834 835 837
723 717 721 724 715 713 717 713 716 722 726 729 737 751 747 734 735 730 719 717 721 722 723 725 725 726 729 730 731 734 737 740 743 743 744 746 750 752 756 761 764 766 769 772 774 777 780 783 786 789 792 794 796 798 800 802 804 806 808 810 811 812 813 814 814 815 816 817 818 819 820 821 821 823 824 825 826 827 828 829 830 831 832 833 833 834 834 834 835 835 835 836 836 835 833 833 835
725 716 711 712 710 709 707 709 724 742 747 733 739 771 767 738 734 733 722 720 722 722 724 727 726 724 727 729 729 729 731 734 736 738 740 742 745 748 753 757 760 762 765 768 771 774 777 780 783 786 789 791 793 795 798 800 802 804 806 807 809 809 810 811 812 813 815 816 816 817 818 820 821 822 823 825 826 827 828 829 829 830 831 832 833 833 834 834 834 834 835 836 836 836 836 835 835
728 713 703 703 704 708 708 709 725 749 753 732 731 765 772 747 735 730 724 724 723 721 723 724 724 725 725 726 726 725 726 728 731 733 734 737 740 744 748 752 755 758 761 764 767 770 773 777 780 783 786 788 790 793 795 797 799 801 803 804 806 807 808 809 810 812 813 814 815 816 817 818 820 821 823 824 825 826 827 828 829 830 831 831 832 833 833 833 833 834 835 836 836 837 837 836 835
724 701 696 704 706 710 710 708 721 734 737 733 729 743 764 760 740 724 721 726 725 722 723 722 721 721 722 722 721 720 721 722 726 730 731 733 736 739 743 747 751 754 757 760 764 767 770 773 777 780 783 785 787 790 792 794 796 798 800 802 803 805 806 807 809 810 811 813 814 815 816 818 819 821 822 823 824 825 826 827 828 829 830 831 832 833 833 833 833 835 836 836 837 837 837 837 836
711 692 690 697 702 708 708 707 717 722 735 752 741 734 762 767 738 720 719 725 728 723 719 719 718 716 717 719 719 715 715 716 718 723 726 728 730 734 739 743 747 751 754 757 760 763 767 770 774 777 779 782 784 787 789 791 794 796 798 800 801 803 804 805 807 808 810 811 813 814 816 817 819 820 821 822 823 824 825 827 828 829 830 831 831 832 833 833 834 835 836 836 837 837 837 838 837
698 690 692 692 695 703 707 709 713 720 742 761 745 735 762 768 740 727 725 724 724 718 712 711 711 711 712 716 719 714 710 711 712 715 719 722 725 730 735 739 744 748 750 754 757 760 764 767 770 773 776 779 781 784 787 789 791 793 795 797 798 800 802 804 805 807 809 810 812 813 815 816 818 819 820 821 822 823 825 826 827 829 829 830 831 831 832 833 834 835 835 836 836 837 837 837 837
693 696 702 703 699 698 704 707 711 729 748 750 738 730 749 763 743 726 723 716 711 709 708 706 704 707 710 713 718 715 710 709 709 710 713 718 722 726 731 736 740 744 747 750 754 757 760 763 767 770 773 776 778 781 784 786 788 790 792 794 796 798 800 802 804 805 807 809 810 812 814 815 816 817 819 820 821 823 824 826 827 828 828 829 830 831 832 832 833 834 835 835 836 836 837 837 837
696 703 711 718 715 710 718 719 721 742 749 735 727 721 735 755 740 715 708 700 695 701 707 707 704 705 706 708 712 712 710 707 707 709 710 714 719 722 726 731 736 740 744 746 749 753 756 760 763 767 769 772 775 778 781 783 786 788 789 792 793 796 798 800 802 804 805 807 809 810 812 813 815 816 817 819 820 822 823 825 826 826 827 829 830 830 831 832 832 832 834 835 835 836 836 836 837
699 706 717 731 736 740 748 743 736 744 739 720 714 718 730 737 720 702 699 693 687 691 696 698 696 695 699 701 702 705 706 704 704 706 708 710 715 718 720 725 730 735 739 742 745 748 752 756 759 762 765 769 772 774 777 780 782 785 786 789 791 794 796 798 799 801 803 805 807 808 810 812 813 815 816 818 819 820 822 823 824 825 827 828 829 830 831 831 832 832 833 834 835 835 836 836 836
703 709 719 731 740 756 765 755 745 743 732 711 704 717 730 725 706 693 691 687 681 680 684 686 683 683 688 689 691 699 702 701 702 703 704 706 709 712 715 720 725 729 733 737 741 744 748 752 755 759 762 765 768 771 774 777 779 781 783 786 789 791 793 795 797 799 801 803 805 807 808 810 812 813 815 816 818 819 821 822 823 825 826 827 828 829 830 831 831 832 833 833 834 834 835 835 835
697 694 704 715 722 742 753 747 746 744 732 716 709 719 729 723 703 683 676 676 674 675 676 676 676 676 676 678 686 697 699 698 701 702 701 700 702 706 710 714 719 723 728 732 736 740 744 747 751 755 758 761 764 767 770 773 776 779 781 783 786 788 790 793 795 797 799 801 803 805 807 808 810 812 814 815 817 818 819 821 823 824 825 826 827 828 829 830 831 832 832 833 833 833 834 834 835
692 685 697 706 704 716 727 723 723 729 733 725 714 713 708 698 685 670 670 673 671 675 674 673 675 673 672 676 683 691 694 693 696 697 697 696 697 700 705 709 713 718 723 726 730 735 739 743 747 750 754 757 760 764 767 770 773 776 777 780 782 785 788 790 793 795 797 799 801 803 805 807 809 811 812 814 816 817 819 821 822 823 824 825 826 827 828 829 830 831 832 832 832 833 833 834 834
692 695 702 692 682 697 717 719 710 716 733 726 710 707 698 689 682 671 674 679 676 676 676 673 673 670 671 676 680 685 688 688 689 690 691 692 694 696 699 703 708 712 716 720 725 730 734 738 742 746 749 753 756 760 763 767 770 772 774 777 779 782 785 787 790 793 795 797 799 801 803 805 807 809 810 812 814 816 818 820 821 822 823 823 824 826 827 828 829 830 831 832 832 832 832 833 833
687 698 692 678 681 690 703 723 724 725 735 721 705 707 704 703 699 681 678 685 682 681 678 673 670 667 670 674 677 680 682 683 684 684 686 688 689 692 694 698 701 705 710 715 720 725 730 734 737 741 745 748 752 755 759 763 766 768 771 773 776 779 781 785 787 790 792 795 796 799 801 803 805 806 808 809 811 814 816 818 820 821 821 822 823 824 826 827 828 829 830 831 831 831 831 832 832
673 677 669 676 702 706 702 719 728 730 736 724 710 706 699 699 695 685 685 685 681 682 678 673 670 667 668 670 673 675 677 680 682 681 682 684 685 687 689 693 696 701 706 711 716 721 725 730 733 737 740 743 748 752 755 759 762 764 767 769 773 775 778 782 784 787 790 792 794 796 798 800 802 804 806 807 808 810 812 814 816 818 820 821 822 822 824 825 826 827 828 829 829 830 830 830 831
670 669 664 670 688 698 699 702 708 720 730 726 720 712 697 685 674 673 681 676 673 678 675 669 667 663 660 661 665 669 673 677 678 676 677 678 680 681 684 687 691 696 703 707 712 717 720 725 729 733 737 740 744 748 751 755 758 760 763 766 769 772 775 779 781 785 787 788 791 793 795 798 799 801 803 804 805 806 808 809 811 813 815 818 819 820 821 822 822 823 825 826 826 827 828 829 830
680 683 681 676 676 681 687 686 689 705 718 720 723 719 697 671 656 658 666 664 662 665 665 663 663 660 654 651 656 662 667 672 672 671 672 673 674 676 679 684 687 692 698 702 706 711 715 720 724 728 732 735 739 743 747 751 753 756 759 762 765 768 772 775 778 782 784 785 788 791 793 795 797 799 800 801 802 803 805 807 808 809 811 813 814 814 815 817 818 820 821 823 824 825 826 827 828
672 679 680 678 676 681 696 702 689 686 698 706 713 717 693 660 646 647 652 656 655 654 655 656 656 655 651 647 649 653 659 665 666 666 668 669 671 672 675 680 684 687 692 696 700 705 710 714 718 722 726 730 734 738 742 746 748 752 755 758 762 765 768 772 775 778 780 782 786 788 790 791 793 794 795 796 798 800 802 803 805 806 808 809 810 810 812 814 816 817 819 820 821 823 825 826 826